COSMOS 1275 DEB

Satellite information

Favourite Embed

Satellite Type and Status

DEBRISIN ORBIT

Key statistics

Satellite COSMOS 1275 DEB at a glance.

Uptime

16105

Days in orbit

Revolutions

≈ 14.3

Per day

Orbit

LEO

Low Earth Orbit

Inclination

82.9

Latest

Satellite identification and parameters

Extended collection of information and parameters for COSMOS 1275 DEB.

Object identification

Identified? True

Debris? True

Object name: COSMOS 1275 DEB

International designator: 1981-053LU

Object number (NORAD): 18592

Object ID (CCSDS): 18592

Country: COMMONWEALTH OF INDEPENDENT STATES (CIS)

Current information (Y/N): Y

RCS size: SMALL

Orbital parameters

Period: 100.64 minutes

Inclination: 82.9371 deg

SMA: 7167.056 km

Apoapsis: 796.997 km

Periapsis: 780.844 km

RAAN: 353.983 deg

Eccentricy: 0.0011269

Argument of periapsis: 124.6385 deg

Mean anomaly: 27.2361 deg

Mean motion: 14.30841651 rev/day

Mean motion (dot): 0.00002627 rev/day2

B* drag term: 0.0009948 1/REarth

Two-line elements (TLE)

Creation date: July 8, 2025, 2:27 a.m.

Reference frame: TEME

Reference center: EARTH

Epoch: July 7, 2025, 9:51 p.m. UTC

TLE line 0: 0 COSMOS 1275 DEB

TLE line 1: 1 18592U 81053LU 25188.91067586 .00002627 00000-0 99480-3 0 9998

TLE line 2: 2 18592 82.9371 353.9830 0011269 124.6385 27.2361 14.30841651654421

Live tracking on map

Real-time ground track for satellite COSMOS 1275 DEB.

In-orbit conjunctions

A list of the most updated potential collisions computed for object COSMOS 1275 DEB.

Target Orbit TCA Probability of collision Miss distance Type
COSMOS 1375 DEB LEO 2025-06-19 20:22:49 0.000568392 83.0 (m) DEBRIS
CZ-4 DEB SSO 2024-11-12 05:44:08 0.0001387332 825.0 (m) DEBRIS
FENGYUN 1C DEB SSO 2024-11-11 14:34:47 0.0001091548 856.0 (m) DEBRIS

Associated space launch

Navigation satellite providing location information for the Tsiklon-B navigation system

COSMOS 1275 DEB was lifted into orbit during the mission ‘Kosmos-3M | Parus 27’, on board a Kosmos-3M space rocket.

The launch took place on June 4, 1981, 3:41 p.m. from 132/2.

For more information about the launch, click the button.

Launch to space Kosmos-3M | Parus 27
Kosmos-3M | Parus 27

Agency: N/A

Status: Launch Successful

Launch date: June 4, 1981, 3:41 p.m. UTC

Rocket: Kosmos-3M

Launch pad: 132/2

Location: Plesetsk Cosmodrome, Russian Federation

...

Latest news about this satellite

There are no fresh news available about this satellite. Check back as we update our databases every day.


Newsletter sign-up

Weekly statistics, charts and insights to help you stay on top of the space industry.